CW9271 Weather Reports


time (UTC)temp
F
wind
direction
speed
knots
gust
knots
rain 1hr
in
rain 24hr
in
rain mn
in
humidity
%
barometer
mb
20260507040339 49 338 2.6 7.0 0.02 0.36 0.36 90 1005.9
20260507034839 50 293 3.5 7.0 0.01 0.35 0.35 90 1005.8
20260507033337 50 268 4.3 8.7 0.01 0.35 0.35 91 1005.6
20260507031837 51 302 3.5 8.7 0.00 0.34 0.34 93 1005.8
20260507030335 52 281 4.3 8.7 0.00 0.34 0.34 93 1005.3
20260507024840 53 217 7.8 13.0 0.00 0.34 0.34 93 1005.2
20260507023335 53 244 6.1 8.7 0.00 0.34 0.34 93 1005.2
20260507021833 54 227 4.3 7.0 0.00 0.34 0.34 93 1005.2
20260507020329 55 237 4.3 7.8 0.01 0.34 0.34 93 1005.0
20260507014834 55 227 4.3 6.1 0.01 0.34 0.34 93 1004.9
20260507013331 56 221 1.7 7.0 0.01 0.34 0.34 92 1005.0
20260507011829 57 271 4.3 7.8 0.01 0.34 0.34 92 1005.0
20260507010325 57 256 3.5 5.2 0.00 0.33 0.33 92 1005.0
20260507004828 57 136 0.9 1.7 0.05 0.33 0.33 92 1004.8
20260507003324 57 215 1.7 3.5 0.05 0.33 0.33 93 1004.7
20260507001845 57 263 2.6 5.2 0.05 0.33 0.33 93 1004.7
20260507000323 57 280 0.9 5.2 0.05 0.33 0.33 93 1004.6
20260506234843 57 154 3.5 7.0 0.01 0.28 0.28 93 1004.5
20260506233323 57 59 3.5 8.7 0.01 0.28 0.28 92 1004.3
20260506231823 58 194 3.5 8.7 0.01 0.28 0.28 92 1004.4
20260506230341 58 119 3.5 9.6 0.01 0.28 0.28 92 1004.2
20260506224841 58 132 2.6 8.7 0.01 0.27 0.27 93 1004.2
20260506223321 58 156 3.5 9.6 0.02 0.27 0.27 93 1004.5
20260506221842 58 79 5.2 10.4 0.03 0.27 0.27 92 1004.5
20260506220402 58 118 4.3 9.6 0.05 0.27 0.27 92 1004.6
20260506214841 58 166 3.5 14.8 0.06 0.26 0.26 92 1004.8
20260506213336 58 128 2.6 7.0 0.05 0.25 0.25 92 1004.9
20260506211840 58 93 2.6 7.8 0.07 0.24 0.24 92 1005.1
20260506210337 58 157 1.7 7.8 0.09 0.22 0.22 92 1005.3
20260506204834 58 171 4.3 8.7 0.12 0.20 0.20 92 1005.5
20260506203331 58 167 2.6 11.3 0.12 0.19 0.19 92 1005.7
20260506201829 58 251 3.5 9.6 0.12 0.17 0.17 92 1005.8
20260506200328 59 200 2.6 11.3 0.09 0.13 0.13 92 1005.6
20260506194849 59 223 1.7 9.6 0.04 0.08 0.08 92 1005.9
20260506193345 59 144 4.3 9.6 0.02 0.06 0.06 92 1006.2
20260506191823 59 199 5.2 13.9 0.02 0.05 0.05 92 1006.2
20260506190339 59 189 5.2 13.0 0.02 0.04 0.04 92 1006.4
20260506184843 59 157 4.3 9.6 0.02 0.04 0.04 92 1006.3
20260506183339 59 128 1.7 6.1 0.03 0.04 0.04 92 1006.6
20260506181839 59 87 1.7 2.6 0.03 0.03 0.03 92 1006.9
20260506180335 59 190 2.6 9.6 0.02 0.02 0.02 91 1007.2
20260506174840 60 207 0.9 1.7 0.01 0.01 0.01 90 1007.2
20260506173338 61 212 2.6 4.3 0.01 0.01 0.01 87 1007.2
20260506171838 62 180 0.0 2.6 0.00 0.00 0.00 86 1006.9
20260506170358 62 128 2.6 5.2 0.00 0.00 0.00 80 1007.1
20260506164836 62 230 2.6 7.0 0.00 0.00 0.00 78 1007.4
20260506163336 62 142 3.5 6.1 0.00 0.00 0.00 78 1007.6
20260506161835 62 150 2.6 7.8 0.00 0.00 0.00 80 1008.2
20260506160332 61 173 2.6 7.8 0.00 0.00 0.00 80 1008.7
20260506154831 61 208 3.5 5.2 0.00 0.00 0.00 79 1009.0
20260506153350 61 268 1.7 3.5 0.00 0.00 0.00 78 1008.9
20260506151833 61 245 1.7 2.6 0.00 0.00 0.00 79 1008.9
20260506150331 60 259 0.9 3.5 0.00 0.00 0.00 79 1009.0
20260506144831 61 269 1.7 3.5 0.00 0.00 0.00 77 1009.0
20260506143328 61 283 0.9 4.3 0.00 0.00 0.00 77 1008.9
20260506141854 61 235 2.6 4.3 0.00 0.00 0.00 76 1009.0
20260506140329 62 226 1.7 3.5 0.00 0.00 0.00 75 1008.9
20260506134830 62 238 1.7 5.2 0.00 0.00 0.00 75 1009.0
20260506133326 62 187 3.5 5.2 0.00 0.00 0.00 74 1009.2
20260506131847 61 209 0.9 2.6 0.00 0.00 0.00 76 1009.1
20260506130326 61 200 0.0 5.2 0.00 0.00 0.00 76 1009.2
20260506124827 61 224 1.7 3.5 0.00 0.00 0.00 75 1009.0
20260506123325 61 190 0.9 3.5 0.00 0.00 0.00 76 1009.2
20260506121824 60 123 0.0 3.5 0.00 0.00 0.00 77 1009.3
20260506120321 59 119 0.9 1.7 0.00 0.00 0.00 79 1009.5
20260506114825 58 78 1.7 3.5 0.00 0.00 0.00 80 1009.5
20260506113324 58 130 1.7 7.8 0.00 0.00 0.00 80 1009.6
20260506111822 57 82 1.7 6.1 0.00 0.00 0.00 81 1009.5
20260506110339 57 119 0.9 3.5 0.00 0.00 0.00 82 1009.6
20260506104842 57 69 3.5 6.1 0.00 0.00 0.00 82 1009.5
20260506103338 57 71 2.6 5.2 0.00 0.00 0.00 83 1009.7
20260506101859 57 69 2.6 4.3 0.00 0.00 0.00 82 1009.3
20260506100334 56 60 3.5 4.3 0.00 0.00 0.00 83 1009.2
20260506094832 56 87 1.7 7.0 0.00 0.00 0.00 84 1009.2
20260506093354 57 74 2.6 3.5 0.00 0.00 0.00 84 1009.1
20260506091831 56 67 1.7 3.5 0.00 0.00 0.00 85 1009.2
20260506090327 56 75 2.6 3.5 0.00 0.00 0.00 86 1009.3
20260506084826 56 75 1.7 2.6 0.00 0.00 0.00 85 1009.2
20260506083345 57 76 1.7 2.6 0.00 0.00 0.00 83 1009.2
20260506081848 58 296 0.0 1.7 0.00 0.00 0.00 81 1009.2
20260506080323 59 285 0.9 2.6 0.00 0.00 0.00 81 1009.1
20260506073402 59 275 0.0 1.7 0.00 0.00 0.00 82 1009.0
20260506071903 59 260 0.0 4.3 0.00 0.00 0.00 82 1008.9
20260506070323 59 230 2.6 6.1 0.00 0.00 0.00 82 1009.0
20260506061841 60 208 3.5 7.0 0.00 0.00 0.00 80 1008.5
20260506060337 60 271 1.7 6.1 0.00 0.00 0.00 80 1008.6
20260506050334 60 209 0.9 2.6 0.00 0.00 0.00 79 1008.8
20260506044838 60 161 0.9 1.7 0.00 0.00 0.00 79 1008.9
20260506043336 60 161 0.0 1.7 0.00 0.00 0.00 78 1008.8
20260506041835 60 147 0.9 1.7 0.00 0.00 0.00 77 1009.0